FENGYUN 1C DEB *, 47006

Orbit data source: Space-Track

FENGYUN 1C DEB *, 47006 is space debris in SSO originally from a launch on Mon, 10 May 1999 UTC launched from the Taiyaun Space Center, China (TSC). Fengyun 1C debris stems from the Chinese weather satellite Fengyun-1C, which was intentionally destroyed by a Chinese anti-satellite missile in 2007. This event dramatically increased the amount of space debris, with thousands of trackable fragments posing hazards to satellites and human spaceflight. The Fengyun 1C debris cloud has become a focal point in discussions about space sustainability and the need for international regulations to prevent the creation of new debris.

Loading next visibility...
Identifier
47006, 1999-025FAG
Orbit
SSO
Country
Flag of CNCN / PRC
Related business
Manufacturer
Unknown
Mission
Spacecraft
Bus & Motor
Unknown
Mass
Unknown
Launch date (UTC)
1999-05-10 (27 years ago)
Launch vehicle
Unknown
Launch site
Taiyaun Space Center, China (TSC)
Object type
Payload
Rocket body
Debris
Shape & HBR
Unknown shape, 0.1 m
Radar Cross Section
Small (<0.1 m²)

Expand to show TLE details & history
Last TLE update: 3 weeks ago

TLE from 3 weeks ago
0 FENGYUN 1C DEB *
1 47006U 99025FAG 26243.96559144  .00000667  00000-0  48229-3 0  9999
2 47006  99.1689 307.4153 0083995  78.2728 282.7845 13.98490353864326
Epoch: 2026-08-31T23:10Z
TLE epoch observation values (Epoch: 2026-08-31T23:10:27.100Z)
Latitude
0.00004°
Longitude
-20.33688°
Altitude
888.859 km
Speed
7.414 km/s
True Right ascension
20h 29m 39s
True Declination
0° 00' 00"
Sunlit
Object was in full shadow at epoch
Visualization orbit readout
Latitude
Unknown
Longitude
Unknown
Altitude
Unknown
Speed
Unknown
Apparent Right ascension
Unknown
Apparent Declination
Unknown
Sunlit
N/A
Visualization observer readout
Local Sidereal Time
04:11:15
Azimuth
Unknown
Elevation
Unknown
Doppler factor
Unknown
Orbital elements
Apogee altitude
957.338 km
Perigee altitude
835.136 km
Semi-major axis
7,274.374 km
Eccentricity
0.0084
Inclination
99.1689°
RAAN
307.4153°
Arg. of periapsis
78.2728°
True anomaly
281.84371°
Mean anomaly
282.7845°
Eccentric anomaly
282.31432°
Mean motion
3.49824 °/min
Orbital period
102.91 mins
BSTAR
0.00048229
Loading maneuver chart data...
Computing Atmospheric mass density...

Documentation

Showing up to 5 results
|